Regional Weather Roundup
Issued by NWS

Home | Current Version | Previous Version | Graphics & Text | Print | Product List | Glossary On
Versions: 1 2 3 4 5 6 7 8 9 10 11 12 13 14 15 16 17 18 19 20 21 22 23 24 25 26 27 28 29 30 31 32 33 34 35 36 37 38 39 40 41 42 43 44 45 46 47 48 49 50
000
ASUS45 KBOU 300107
RWRCO

WEATHER ROUNDUP FOR COLORADO
NATIONAL WEATHER SERVICE DENVER/BOULDER CO
700 PM MDT FRI MAY 29 2015

NOTE: "FAIR" INDICATES FEW OR NO CLOUDS BELOW 12000 FEET WITH NO
SIGNIFICANT WEATHER AND/OR OBSTRUCTIONS TO VISIBILITY.

COZ001>005-013-030-031-300200-
...NORTHWEST COLORADO...

CITY           SKY/WX    TMP DP  RH WIND       PRES   REMARKS
CRAIG          MOSUNNY   61  41  47 E3        30.27R
HAYDEN         PTSUNNY   55  39  54 SE8       30.29S
MEEKER         MOSUNNY   61  41  47 N13       30.26R
MOUNT WERNER   NOT AVBL
STEAMBOAT SPGS CLOUDY    55  39  56 SW3       30.30S
WALDEN         MOSUNNY   48  37  66 N3        30.36S
$$

COZ006>008-011-300200-
...WEST CENTRAL VALLEYS...

CITY           SKY/WX    TMP DP  RH WIND       PRES   REMARKS
GRAND JUNCTION SUNNY     72  40  31 W10       30.13S
MONTROSE       SUNNY     71  33  24 NW9       30.19F
EAGLE          PTSUNNY   66  46  48 E17G24    30.29R
RIFLE          MOSUNNY   70  38  31 N6        30.18S
DELTA          SUNNY     76  33  20 W13G20    30.14R
NUCLA          SUNNY     72  25  17 NW9       30.21R
$$

COZ017>023-064>068-300200-
...SOUTHWEST COLORADO...

CITY           SKY/WX    TMP DP  RH WIND       PRES   REMARKS
DURANGO        SUNNY     71  23  16 W15G23    30.16R
CORTEZ         SUNNY     74  22  14 N13G18    30.16R
PAGOSA SPRINGS SUNNY     64  26  23 E7        30.24F
TELLURIDE      SUNNY     57  29  35 NW3       30.36R
WOLF CREEK PAS NOT AVBL
$$

COZ009-010-012-014-032>034-037-058>063-300200-
...CENTRAL COLORADO...

CITY           SKY/WX    TMP DP  RH WIND       PRES   REMARKS
ASPEN          LGT RAIN  57  35  43 NW7       30.28S
BUENA VISTA    PTSUNNY   61  25  25 NW12      30.26R
COPPER MTN     HVY SNOW  34  30  86 W21G29    30.50R VSB<1/4 WCI  22
BERTHOUD PASS  TSTM      28  21  74 N7G20     30.52R VSB<1/4 WCI  21
COTTONWOOD PAS PTSUNNY   55  21  26 W5        30.37R THUNDER
GUNNISON       PTSUNNY   63  27  25 W14       30.28R
KREMMLING      CLOUDY    54  36  50 E10       30.33R THUNDER
LEADVILLE      LGT RAIN  42  31  64 N10G20    30.39R
MONARCH PASS   MOSUNNY   41  27  56 NW15      30.58R
SALIDA         PTSUNNY   67  28  22 W8        30.31R
SUNLIGHT       PTSUNNY   46  32  57 CALM      30.48R
WILKERSON PASS FOG       36  32  87 E6        30.47S THUNDER VSB 3/4
$$

COZ069>075-300200-
...SAN LUIS VALLEY/SANGRE DE CRISTO MOUNTAINS...

CITY           SKY/WX    TMP DP  RH WIND       PRES   REMARKS
ALAMOSA        CLOUDY    60  30  32 W14       30.24R
LA VETA PASS   CLOUDY   N/A N/A N/A MISG      30.41R
SAGUACHE       MOSUNNY   64  28  25 N12G17    30.25R
$$

COZ035-036-038>040-300200-
...NORTHERN COLORADO FRONT RANGE...

CITY           SKY/WX    TMP DP  RH WIND       PRES   REMARKS
DENVER INTL AP CLOUDY    56  46  69 NE17G26   30.27R
DMNS CITY PARK   N/A     56  46  68 N13       30.30R
AURORA         PTSUNNY   55  46  72 N12       30.30R
FRONT RANGE AP PTSUNNY   57  48  72 NE15      30.26
ERIE MUNI ARPT CLOUDY    56  49  78 N10       30.29R THUNDER
BOULDER MUN AP CLOUDY    55  46  71 N5        30.30R THUNDER
CENTENNIAL     CLOUDY    55  45  68 N18G24    30.29R
BROOMFIELD     PTSUNNY   55  48  76 N8        30.30R
FORT COLLINS   CLOUDY    54  48  82 N9        30.30R
LONGMONT       CLOUDY    57  50  76 N6        30.31R
$$

COZ041-046-047-076>085-087-088-300200-
...PIKES PEAK/PALMER DIVIDE AND SOUTHERN FOOTHILLS...

CITY           SKY/WX    TMP DP  RH WIND       PRES   REMARKS
COLO. SPRINGS  TSTM      53  46  77 N15       30.29R
A. F. ACADEMY  CLOUDY    52  45  76 NW5       30.30R
ELLICOTT       PTSUNNY  N/A N/A N/A NE16      30.26R THUNDER
FALCON         CLOUDY    51  42  72 N14G21    30.32R
FORT CARSON    TSTM      55  45  67 N12       30.25R
LIMON          PTSUNNY   57  46  66 N16G26    30.25R
MONUMENT HILL  CLOUDY    50  43  76 MISG      30.32R THUNDER
TRINIDAD       TSTM      51  46  83 E17G29    30.23R
$$

COZ042>045-048>051-090-091-300200-
...NORTHEAST COLORADO...

CITY           SKY/WX    TMP DP  RH WIND       PRES   REMARKS
GREELEY ARPT   CLOUDY    52  50  93 NE14      30.29S
AKRON          CLOUDY    51  46  83 N18       30.26R
BURLINGTON     PTSUNNY   58  50  75 NE16      30.20R
WRAY           CLOUDY    58  48  69 N16G24    30.21R
STERLING       CLOUDY    52  46  82 NE14      30.26R
HOLYOKE        CLOUDY    55  48  76 N18       30.24R
FORT MORGAN    PTSUNNY   55  45  69 N18       30.28R
$$

COZ086-089-092>099-300200-
...SOUTHEAST COLORADO...

CITY           SKY/WX    TMP DP  RH WIND       PRES   REMARKS
PUEBLO         CLOUDY    67  45  45 NE21      30.16R
LA JUNTA       PTSUNNY   70  47  43 NE16      30.13R
LAMAR          MOSUNNY   67  49  52 NE17      30.11R
SPRINGFIELD      N/A     67  47  48 N12       30.13R
$$



USA.gov is the U.S. government's official web portal to all federal, state and local government web resources and services.